Regional Weather Roundup
Issued by NWS

Home | Current Version | Previous Version | Graphics & Text | Print | Product List | Glossary On
Versions: 1 2 3 4 5 6 7 8 9 10 11 12 13 14 15 16 17 18 19 20 21 22 23 24 25 26 27 28 29 30 31 32 33 34 35 36 37 38 39 40 41 42 43 44 45 46 47 48 49 50
326
ASUS44 KMEG 190100
RWRTN
TENNESSEE HOURLY STATE WEATHER ROUNDUP
NATIONAL WEATHER SERVICE MEMPHIS TN
800 PM CDT MON SEP 18 2017

TNZ002-004-019-021-049-052-054-088>092-190200-
WEST TENNESSEE

CITY           SKY/WX    TMP DP  RH WIND       PRES   REMARKS
MEMPHIS INTL   MOCLDY    77  71  82 CALM      29.95F
NWS MEMPHIS      N/A     76 N/A N/A MISG        N/A
JACKSON        MOCLDY    78  74  87 CALM      29.96S
DYERSBURG      CLOUDY    75  71  87 CALM      29.97R
$$

TNZ008-025-027-028-033-062-065-066-190200-
NORTH MIDDLE TENNESSEE

CITY           SKY/WX    TMP DP  RH WIND       PRES   REMARKS
NASHVILLE      PTCLDY    79  67  66 N12       30.01S
CLARKSVILLE    CLEAR     73  67  81 E7        29.99F
SMYRNA         CLEAR     82  68  63 E5        30.02S
CROSSVILLE     CLEAR     71  63  75 CALM      30.09R
$$

TNZ061-075-076-078-094-096-097-190200-
SOUTH MIDDLE TENNESSEE

CITY           SKY/WX    TMP DP  RH WIND       PRES   REMARKS
MCMINNVILLE    CLEAR     70  70 100 CALM      30.04S
$$

TNZ017-018-042-046-047-190200-
NORTHEAST TENNESSEE

CITY           SKY/WX    TMP DP  RH WIND       PRES   REMARKS
TRI CITIES     PTCLDY    68  62  81 CALM      30.07R
$$

TNZ012-013-036-069-073-074-190200-
CENTRAL EAST TENNESSEE

CITY           SKY/WX    TMP DP  RH WIND       PRES   REMARKS
KNOXVILLE      MOCLDY    77  63  61 N3        30.03R
OAK RIDGE      PTCLDY    72  67  84 CALM      30.06R
GATLINBURG     CLEAR     72  61  68 CALM      30.03R
$$

TNZ083-085-099-190200-
SOUTHEAST TENNESSEE

CITY           SKY/WX    TMP DP  RH WIND       PRES   REMARKS
CHATTANOOGA    CLEAR     76  64  66 CALM      30.03R
$$

SKY/WX REPORTED AS FAIR MEANS FEW OR NO CLOUDS BELOW
12 THOUSAND FEET.





USA.gov is the U.S. government's official web portal to all federal, state and local government web resources and services.